Other Public Products
Issued by NWS Grand Forks, ND

Home | Current Version | Previous Version | Graphics & Text | Print | Product List | Glossary On
Versions: 1 2 3 4 5 6 7 8 9 10 11 12 13 14 15 16 17 18 19 20 21 22 23 24 25 26 27 28 29 30 31 32 33 34 35 36 37 38 39 40 41 42 43 44 45 46 47 48 49 50
000
FPUS83 KFGF 171910
OPUFGF
PRAIRIE TO PINES WEATHER ROUNDUP
NATIONAL WEATHER SERVICE EASTERN NORTH DAKOTA/GRAND FORKS ND
200 PM CDT THU APR 17 2014

 **SATELLITE DATA USED TO AUGMENT SKY COVER AT AUTOMATED STATIONS**
 *****  WEATHER ACROSS EASTERN NORTH DAKOTA  *****

CITY           SKY/WX    TMP DP  RH WIND       PRES   REMARKS
GRAND FORKS    SUNNY     40  11  30 VRB7      30.33F
GRAND FORKS AF SUNNY     39   8  27 NE9       30.33F
GRAND CITY NWS   N/A     41 N/A N/A N9          N/A
BUXTON         NOT AVBL
DEVILS LAKE    SUNNY     37   9  30 SE8       30.29F
FARGO          SUNNY     42  14  32 MISG      30.31F
WAHPETON ARPT  CLEAR     41   9  26 N7        30.31S
$$

 *****  WEATHER ACROSS CENTRAL AND WESTERN NORTH DAKOTA  *****

CITY           SKY/WX    TMP DP  RH WIND       PRES   REMARKS
JAMESTOWN      SUNNY     40   8  26 CALM      30.27F
BISMARCK       CLOUDY    42  17  36 S12       30.24F
MINOT          CLOUDY    39  15  37 E17       30.22F
MINOT AFB      CLOUDY    38  18  44 SE14      30.22F
GARRISON         N/A     38  16  40 S12       30.21F
WILLISTON      PTSUNNY   42  26  53 SE17G26   30.12F
DICKINSON      CLOUDY    36  25  64 SE22      30.11F
HETTINGER      CLOUDY    32  26  78 SE20G26   30.14F WCI  20
$$

 *****  OTHER OBSERVATIONS NORTHEAST NORTH DAKOTA  *****

CITY           SKY/WX    TMP DP  RH WIND       PRES   REMARKS
WALHALLA         N/A     36   5  27 NE6       30.35F
LANGDON        FAIR      39   5  24 SE8       30.29F
CAVALIER       FAIR      37   7  28 E5        30.35F
GRAFTON        FAIR      36   7  30 NE10      30.34F
CANDO          FAIR      37   5  25 SE12      30.29F
FORT TOTTEN      N/A     39   5  24 NE7       29.95S
ROLLA          FAIR      34  12  40 S3        30.28F
RUGBY          FAIR      36  14  41 SE7       30.26F
 ***** THE ABOVE OBSERVATIONS ARE NON NWS ARE NOT QUALITY
        CONTROLLED AND MAY MIS-REPORT RAIN FOR SNOW...
$$

 *****  OTHER OBSERVATIONS SOUTHEAST NORTH DAKOTA *****

CITY           SKY/WX    TMP DP  RH WIND       PRES   REMARKS
COOPERSTOWN    FAIR      37   9  30 CALM      30.29F
VALLEY CITY    NOT AVBL
OAKES          FAIR      41   9  26 E3        30.29F
GWINNER        CLEAR     43  12  28 N7        30.31S
SHEYENNE NWR     N/A     46   9  22 N5        29.95S
BUFFALO        NOT AVBL
WYNDMERE       NOT AVBL
 ***** THE ABOVE OBSERVATIONS ARE NON NWS ARE NOT QUALITY
       CONTROLLED AND MAY MIS-REPORT RAIN FOR SNOW...
$$

  *****  WEATHER ACROSS NORTHERN MINNESOTA  *****

CITY           SKY/WX    TMP DP  RH WIND       PRES   REMARKS
FLAG ISLAND    SUNNY     34   7  32 N9        30.31F
WARROAD        SUNNY     36  10  35 E9        30.32F
ROSEAU         SUNNY     37   1  22 CALM      30.31F
HALLOCK        CLOUDY    37   5  25 W7        30.33F
THF RVR FALLS  SUNNY     37   7  28 NW7       30.31F
HALSTAD          N/A     40  12  31 NW7         N/A
FOSSTON        SUNNY     39  16  38 N8        30.29F
BAUDETTE       SUNNY     37  12  35 N14       30.29F
WASKISH        MOSUNNY   41  18  38 CALM      30.27S
CROOKSTON      SUNNY     39  12  33 NW8       30.33S
$$
  *****  WEATHER ACROSS CENTRAL AND WEST MINNESOTA  *****

CITY           SKY/WX    TMP DP  RH WIND       PRES   REMARKS
BEMIDJI        SUNNY     40   3  21 NW13      30.26S
PARK RAPIDS    SUNNY     41   3  20 VRB5G20   30.24S
WADENA         SUNNY     37  12  35 N6        30.26S
DETROIT LAKES  SUNNY     39  12  33 N8        30.28S
MOORHEAD       NOT AVBL
FERGUS FALLS   SUNNY     39   9  28 N5        30.27F
ELBOW LAKE     FAIR      38  15  38 N7        30.29S
MORRIS MN      MOSUNNY   39  19  45 N10       30.30S
STAPLES        SUNNY     39  19  45 NW7       30.25S
WHEATON        SUNNY     43  19  39 NW8       30.32F
$$
  *****  WEATHER ELSEWHERE ACROSS MINNESOTA  *****

CITY           SKY/WX    TMP DP  RH WIND       PRES   REMARKS
DULUTH         CLOUDY    35  23  61 NW12G20   30.21R
INTRNTL FALLS  MOSUNNY   37  19  48 N12       30.27F
ELY            FLURRIES  30  23  74 N6        30.22R WCI  24
CLOQUET        CLOUDY    36  25  64 NW12      30.22S
BRAINERD       SUNNY     43  22  43 N10       30.25S
HIBBING        CLOUDY    37  22  54 NW12      30.23S
ALEXANDRIA     SUNNY     37  16  42 N10       30.28S
SAINT CLOUD    SUNNY     39  22  50 N7        30.27R
MINNEAPOLIS    CLOUDY    36  28  73 NW10      30.28R
$$

  *****  WEATHER ACROSS SOUTH DAKOTA  *****

CITY           SKY/WX    TMP DP  RH WIND       PRES   REMARKS
SIOUX FALLS    MOSUNNY   39  25  57 NE10      30.32S
BROOKINGS      NOT AVBL
WATERTOWN      MOSUNNY   36  13  38 E5        30.29S
HURON          SUNNY     40  20  44 VRB3      30.31F
SISSETON         N/A     40  19  43 MISG      30.30F
ABERDEEN       SUNNY     43  16  33 N7        30.29F
MITCHELL       SUNNY     45  17  32 NE6       30.31F
PIERRE         CLOUDY    42  21  43 S17G24    30.24F
MOBRIDGE       PTSUNNY   43  17  35 S17       30.21F
RAPID CITY     MOSUNNY   49  33  54 S21G28    30.06F
$$

  *****  SOME WEATHER IN NEARBY STATES *****

CITY           SKY/WX    TMP DP  RH WIND       PRES   REMARKS
GLASGOW MT     PTSUNNY   50  29  44 SE15G30   29.95F
GREAT FALLS MT CLOUDY    50  32  50 SE13      29.83F
CHEYENNE WY    SUNNY     53  14  21 N7        30.05F
SCOTTSBLUFF NE MOSUNNY   50  36  58 SE14      30.09F
OMAHA NE       MOSUNNY   49  26  41 NW9       30.30F
DES MOINES IA  PTSUNNY   47  29  49 NW12      30.28F
DAVENPORT IA   MOSUNNY   51  35  54 NW13      30.24S
CHICAGO IL     PTSUNNY   60  39  45 SW15G21   30.18S
EAU CLAIRE WI  CLOUDY    40  32  73 NW12      30.21S
LA CROSSE WI   CLOUDY    42  32  67 NW12      30.23R
$$

  *****  SOME NATIONAL WEATHER *****

CITY           SKY/WX    TMP DP  RH WIND       PRES   REMARKS
LA GUARDIA NY  PTSUNNY   44  24  45 NE9       30.70F
RALEIGH NC     PTSUNNY   61  30  31 NE7       30.49F
ATLANTA GA     MOSUNNY   63  38  39 E10       30.35F
NEW ORLEANS LA CLOUDY    65  59  81 E15G23    30.15F
OKLAHOMA CITY  CLOUDY    60  42  51 N9        30.20S
ALBUQUERQUE NM CLOUDY    62  22  21 CALM      30.15F
SALT LAKE CITY MOSUNNY   69  21  16 S16       30.02F
LOS ANGELES CA PTSUNNY   66  52  59 SE6       29.92F
BOISE ID       SUNNY     67  26  21 SE17G25   29.86F
SEATTLE WA     LGT RAIN  53  50  89 SW10      29.83F
$$

*** WEATHER ACROSS MANITOBA...SASKATCHEWAN AND ONTARIO ***
                ***ONTARIO***

CITY           SKY/WX    TMP DP  RH WIND       PRES   REMARKS
GERALDTON      LGT SNOW  28  27  93 E8        30.32F VSB 1   WCI  20
THUNDER BAY    LGT SNOW  32  30  93 E18G24    30.23S VSB 1   WCI  20
SIOUX LOOKOUT  PTSUNNY   36   3  25 N6        30.30F
TORONTO        PTSUNNY   45  25  45 E14G21    30.44F
BIG TROUT LK   SUNNY     28   9  43 S9        30.37F WCI  20
PICKLE LAKE    CLOUDY    32   0  25 NW2       30.34F
DRYDEN         PTSUNNY   34   5  29 NE7       30.29F
KENORA         SUNNY     36   7  30 N5        30.30F
$$
                *** MANITOBA***

CITY           SKY/WX    TMP DP  RH WIND       PRES   REMARKS
BRANDON        MOSUNNY   32  14  47 E10       30.32F WCI  24
DAUPHIN        SUNNY     34  18  51 E13       30.34F WCI  25
ISLAND LAKE    MOSUNNY   32   9  37 NW3       30.38F
PILOT MOUND      N/A     36   7  30 S7          N/A
THE PAS        SUNNY     30   9  40 S13       30.35F WCI  20
THOMPSON       MOSUNNY   34  10  37 W6        30.32F
WINNIPEG       SUNNY     36   7  30 N9        30.37F
LYNN LAKE      SUNNY     34   1  25 SW7       30.27F
CHURCHILL      PTSUNNY   28  14  54 NW15      30.15R WCI  17
$$
                ***SASKATCHEWAN***

CITY           SKY/WX    TMP DP  RH WIND       PRES   REMARKS
ESTEVAN        CLOUDY    37  21  52 SE16      30.16F
KINDERSLEY     CLOUDY    36  30  80 SE18G25   29.87F
LLOYDMINSTER   LGT SNOW  27  23  86 E22       29.94F FOG     WCI  12
PRINCE ALBERT  PTSUNNY   34  19  55 SE14G25   30.17F WCI  24
REGINA         CLOUDY    37  19  48 SE24G33   30.11F
YORKTON        SUNNY     32  12  43 SE15G23   30.25F WCI  22



USA.gov is the U.S. government's official web portal to all federal, state and local government web resources and services.